Location: Pasarilla del Rebollar
(40.6790°N, 5.0062°W)
Time: 11:14:11
(UTC+00:00)

NPP - Pass Details

Date: 22 April 2026
Orbit: 825 x 829 km, 98.8° (Epoch: 15 May)

Event Time Altitude Azimuth Distance (km) Brightness Sun altitude
Rises 02:44:08 0° 8° (N) 3,372 7.7 -27.4°
Reaches altitude 10° 02:46:33 10° 3° (N) 2,434 6.7 -27.1°
Enters shadow 02:51:28 50° 299° (WNW) 1,044 4.0 -26.4°
